Bakersfield, CA

2:52 PM PST on January 19, 2017 (GMT -0800)
Meadows

Weather History for KBFL - May, 2013

Change the Weather History Date:

Wednesday, May 8, 2013

  Actual Average Record
Temperature  
Mean Temperature 67 °F 69 °F  
Max Temperature 77 °F 82 °F 100 °F (1974)
Min Temperature 57 °F 56 °F 40 °F (1908)
Degree Days  
Heating Degree Days 0    
Month to date heating degree days 2  
Since 1 July heating degree days 1825  
Cooling Degree Days 2    
Month to date cooling degree days 58  
Year to date cooling degree days 188  
Growing Degree Days 18 (Base 50)    
Moisture  
Dew Point 47 °F    
Average Humidity 52    
Maximum Humidity 67    
Minimum Humidity 36    
Precipitation  
Precipitation 0.00 in 0.01 in 0.95 in (1928)
Month to date precipitation 0.05 0.07  
Year to date precipitation 2.36 4.20  
Since 1 July precipitation 3.15  
Snow  
Snow 0.00 in - - ()
Month to date snowfall 0.0  
Since 1 July snowfall 0.0  
Snow Depth 0.00 in    
Sea Level Pressure  
Sea Level Pressure 30.04 in    
Wind  
Wind Speed 5 mph (NNW)    
Max Wind Speed 14 mph    
Max Gust Speed 18 mph    
Visibility 10 miles    
Events      
T = Trace of Precipitation, MM = Missing Value Source: NWS Daily Summary

Daily Weather History Graph

Daily Weather History Graph

Search for Another Location

Airport or City:

Trip Planner

Search our weather history database for the weather conditions in past years. The results will help you decide how hot, cold, wet, or windy it might be!

Date:

Astronomy

May. 08, 2013 Rise Set
Actual Time 5:57 AM PDT 7:48 PM PDT
Civil Twilight 5:29 AM PDT 8:16 PM PDT
Nautical Twilight 4:56 AM PDT 8:50 PM PDT
Astronomical Twilight 4:20 AM PDT 9:26 PM PDT
Moon 5:05 AM PDT (5/8) 6:53 PM PDT (5/8)
Length of Visible Light 14h 46m
Length of Day
13h 51m
Waning Crescent, 1% of the Moon is Illuminated
May 8
Waning Crescent
May 9
New
May 17
First Quarter
May 24
Full
May 31
Last Quarter

Hourly Weather History & Observations

Time (PDT) Temp. Dew Point Humidity Pressure Visibility Wind Dir Wind Speed Gust Speed Precip Events Conditions
12:54 AM 57.0 °F 46.9 °F 69% 30.02 in 10.0 mi Calm Calm - N/A   Clear
1:54 AM 60.1 °F 48.0 °F 64% 30.03 in 10.0 mi Calm Calm - N/A   Overcast
2:54 AM 59.0 °F 48.0 °F 67% 30.03 in 10.0 mi Calm Calm - N/A   Overcast
3:54 AM 59.0 °F 48.0 °F 67% 30.03 in 10.0 mi ENE 4.6 mph - N/A   Scattered Clouds
4:54 AM 61.0 °F 46.0 °F 58% 30.03 in 10.0 mi Calm Calm - N/A   Overcast
5:54 AM 59.0 °F 46.0 °F 62% 30.05 in 10.0 mi South 3.5 mph - N/A   Mostly Cloudy
6:54 AM 60.1 °F 46.9 °F 62% 30.06 in 10.0 mi Calm Calm - N/A   Mostly Cloudy
7:54 AM 64.0 °F 43.0 °F 46% 30.07 in 10.0 mi Calm Calm - N/A   Clear
8:54 AM 64.9 °F 44.1 °F 47% 30.08 in 10.0 mi Variable 4.6 mph - N/A   Clear
9:54 AM 68.0 °F 46.0 °F 45% 30.08 in 10.0 mi NNW 4.6 mph - N/A   Scattered Clouds
10:54 AM 69.1 °F 46.0 °F 44% 30.08 in 10.0 mi WNW 4.6 mph - N/A   Mostly Cloudy
11:54 AM 72.0 °F 46.9 °F 41% 30.07 in 10.0 mi SSW 3.5 mph - N/A   Partly Cloudy
12:54 PM 73.0 °F 46.9 °F 39% 30.05 in 10.0 mi NW 6.9 mph - N/A   Scattered Clouds
1:54 PM 75.0 °F 46.0 °F 36% 30.04 in 10.0 mi Variable 3.5 mph 17.3 mph N/A   Scattered Clouds
2:54 PM 73.9 °F 46.0 °F 37% 30.02 in 10.0 mi NW 11.5 mph 17.3 mph N/A   Scattered Clouds
3:54 PM 75.0 °F 46.0 °F 36% 30.01 in 10.0 mi NNW 12.7 mph - N/A   Mostly Cloudy
4:54 PM 73.9 °F 46.9 °F 38% 30.00 in 10.0 mi NNW 8.1 mph - N/A   Overcast
5:54 PM 75.9 °F 46.0 °F 35% 30.00 in 10.0 mi NNW 10.4 mph - N/A   Mostly Cloudy
6:54 PM 75.0 °F 46.9 °F 37% 29.99 in 10.0 mi WNW 10.4 mph - N/A   Mostly Cloudy
7:54 PM 71.1 °F 46.9 °F 42% 30.00 in 10.0 mi NW 8.1 mph - N/A   Clear
8:54 PM 66.9 °F 46.9 °F 49% 30.01 in 10.0 mi North 4.6 mph - N/A   Clear
9:54 PM 64.9 °F 48.0 °F 54% 30.03 in 10.0 mi Calm Calm - N/A   Clear
10:54 PM 64.9 °F 48.9 °F 56% 30.05 in 10.0 mi North 3.5 mph - N/A   Clear
11:54 PM 63.0 °F 46.9 °F 56% 30.06 in 10.0 mi NNE 5.8 mph - N/A   Clear